Home > Weather > Whitehorse > Past weeks

Flag for Canada Weather for the Past 2 Weeks in Whitehorse, Yukon, Canada

Now
28 °F

Partly cloudy.


Feels Like: 15 °F
Forecast: 19 / 31 °F
Wind: 22 mph from South

Location: Whitehorse

Current Time: Feb 11, 2016 at 3:32:58 AM

Latest Report: Feb 11, 2016 at 2:00 AM


Visibility: 15 mi

Pressure: 29.87 "Hg (27.56 "Hg at 640m altitude)

Humidity: 86%

Dew point: 25 °F

Location of WhitehorseLocation

Historic Weather in Whitehorse — Graph

°F

Whitehorse Temperature Yesterday

Maximum temperature yesterday: 30 °F (at 5:00 PM)
Minimum temperature yesterday: 14 °F (at 12:00 AM)
Average temperature yesterday: 23 °F

High & Low Weather Summary for the Past Weeks

 TemperatureHumidityPressure
High36 °F (Jan 27, 3:00 PM)93% (Jan 28, 3:00 AM)30.28 "Hg (Jan 28, 3:00 AM)
Low1 °F (Feb 7, 5:00 AM)69% (Jan 27, 7:00 AM)29.12 "Hg (Jan 28, 6:00 AM)
Average20 °F85%29.81 "Hg
* Reported Jan 27 2:00 AM — Feb 11 2:00 AM, Whitehorse, Weather by CustomWeather, © 2016

Note: Actual official high and low records may vary slightly from our data, if they occured in-between our weather recording intervals... More about our weather records

Advertising

Whitehorse Weather History for the Previous 24 Hours

 ConditionsComfort  
Time TempWeatherWind HumidityBarometerVisibility
2:00 AM
Thu, Feb 11
28 °FPartly cloudy.22 mph86%29.87 "Hg15 mi
1:00 AM28 °FLight snow. Mostly cloudy.18 mph86%29.85 "Hg15 mi
12:00 AM27 °FPassing clouds.13 mph93%29.85 "Hg15 mi
11:00 PM
Wed, Feb 10
28 °FOvercast.13 mph86%29.83 "Hg15 mi
10:00 PM28 °FMostly cloudy.15 mph86%29.82 "Hg15 mi
9:00 PM28 °FOvercast.17 mph86%29.81 "Hg15 mi
8:00 PM28 °FMostly cloudy.16 mph86%29.82 "Hg15 mi
7:00 PM28 °FMostly cloudy.14 mph86%29.81 "Hg15 mi
6:00 PM30 °FPartly cloudy.18 mph80%29.82 "Hg20 mi
5:00 PM30 °FBroken clouds.20 mph80%29.83 "Hg20 mi
4:00 PM28 °FBroken clouds.15 mph86%29.83 "Hg20 mi
3:00 PM28 °FBroken clouds.18 mph86%29.84 "Hg20 mi
2:00 PM28 °FMore clouds than sun.20 mph86%29.85 "Hg20 mi
1:00 PM27 °FMostly cloudy.16 mph86%29.86 "Hg20 mi
12:00 PM23 °FCloudy.10 mph93%29.88 "Hg20 mi
11:00 AM21 °FSnow flurries. Broken clouds.7 mph93%29.89 "Hg20 mi
10:00 AM21 °FLight snow. More clouds than sun.5 mph86%29.90 "Hg8 mi
9:00 AM18 °FCloudy.5 mph93%29.91 "Hg7 mi
8:55 AM18 °FCloudy.5 mph93%29.91 "Hg7 mi
8:00 AM18 °FLight snow. Ice fog.2 mph93%29.93 "Hg1 mi
7:00 AM18 °FLight snow. Ice fog.No wind93%29.95 "Hg1 mi
6:00 AM18 °FLight snow. Ice fog.No wind86%29.96 "Hg2 mi
5:00 AM18 °FLight snow. Ice fog.No wind86%29.98 "Hg2 mi
4:00 AM18 °FLight snow. Mostly cloudy.No wind86%30.01 "Hg2 mi
3:00 AM16 °FLight snow. Ice fog.No wind93%30.03 "Hg2 mi
Weather by CustomWeather, © 2016

See weather overviewHow to use our weather pages